RUK198P EGCC-GMTT

Flight info

Callsign RUK198P
Flight time 2h 56m
Altitude 35000
Route ASMIM DCT NOKIN P17 BEPHE DCT OSSEP DCT ELNIF DCT ZESPE DCT DAWLY DCT BHD DCT SALCO DCT GOPIN DCT DELOG DCT VADOX DCT SNR DCT TITAN DCT RATAS DCT NEA DCT NONTU DCT ORBIS DCT DISKO DCT TLD DCT DOPEN DCT MONTO DCT MOLIN DCT VJF N10 LINTO DCT NOLRO
Aircraft B738/M-SDE2E3FGHIRWXY/LB1

Departure

Time 2026-04-25 05:55
Airport Manchester Airport (EGCC)

Arrival

Time 2026-04-25 08:51
Airport Tangier Ibn Battuta Airport (GMTT)
Time Latitude Longitude Altitude Speed Heading
2026-04-25 05:24 53.36010 -2.26927 247 ft 0 kts 313°
2026-04-25 05:46 53.35998 -2.26907 247 ft 4 kts 314°
2026-04-25 05:46 53.35984 -2.26882 247 ft 4 kts 305°
2026-04-25 05:47 53.35977 -2.26850 247 ft 4 kts 235°
2026-04-25 05:47 53.35992 -2.26818 247 ft 3 kts 230°
2026-04-25 05:47 53.35995 -2.26813 247 ft 0 kts 230°
2026-04-25 05:49 53.35976 -2.26839 247 ft 7 kts 206°
2026-04-25 05:49 53.35921 -2.26830 251 ft 8 kts 182°
2026-04-25 05:49 53.35878 -2.26886 253 ft 8 kts 231°
2026-04-25 05:50 53.35840 -2.26970 252 ft 11 kts 237°
2026-04-25 05:50 53.35793 -2.27099 251 ft 15 kts 232°
2026-04-25 05:50 53.35722 -2.27244 252 ft 17 kts 231°
2026-04-25 05:50 53.35642 -2.27409 252 ft 20 kts 231°
2026-04-25 05:51 53.35552 -2.27593 247 ft 22 kts 231°
2026-04-25 05:51 53.35468 -2.27770 248 ft 15 kts 234°
2026-04-25 05:51 53.35443 -2.27938 244 ft 16 kts 234°
2026-04-25 05:51 53.35360 -2.28076 240 ft 18 kts 223°
2026-04-25 05:52 53.35258 -2.28245 237 ft 24 kts 230°
2026-04-25 05:52 53.35146 -2.28478 229 ft 28 kts 231°
2026-04-25 05:52 53.35033 -2.28711 231 ft 25 kts 228°
2026-04-25 05:52 53.34912 -2.28920 225 ft 25 kts 226°
2026-04-25 05:53 53.34790 -2.29148 222 ft 26 kts 231°
2026-04-25 05:53 53.34681 -2.29328 209 ft 19 kts 200°
2026-04-25 05:53 53.34568 -2.29315 208 ft 12 kts 148°
2026-04-25 05:53 53.34536 -2.29241 213 ft 7 kts 71°
2026-04-25 05:54 53.34584 -2.29135 212 ft 28 kts 50°
2026-04-25 05:54 53.34860 -2.28562 234 ft 97 kts 51°
2026-04-25 05:54 53.36121 -2.25889 811 ft 165 kts 53°
2026-04-25 05:55 53.36830 -2.24385 1689 ft 163 kts 51°
2026-04-25 05:55 53.37593 -2.22831 2215 ft 189 kts 51°
2026-04-25 05:55 53.38594 -2.21196 2601 ft 211 kts 28°
2026-04-25 05:55 53.40066 -2.20899 3158 ft 224 kts 343°
2026-04-25 05:56 53.41319 -2.22405 3843 ft 227 kts 300°
2026-04-25 05:56 53.42017 -2.24839 4410 ft 246 kts 292°
2026-04-25 05:56 53.42771 -2.27584 4957 ft 263 kts 294°
2026-04-25 05:56 53.43574 -2.30359 5885 ft 264 kts 295°
2026-04-25 05:57 53.44400 -2.33128 6798 ft 267 kts 296°
2026-04-25 05:57 53.45243 -2.35931 7629 ft 272 kts 297°
2026-04-25 05:57 53.46109 -2.38778 8468 ft 276 kts 297°
2026-04-25 05:57 53.46881 -2.41753 9233 ft 282 kts 282°
2026-04-25 05:58 53.46882 -2.45053 10074 ft 285 kts 261°
2026-04-25 05:58 53.46518 -2.48358 10740 ft 296 kts 259°
2026-04-25 05:58 53.46104 -2.51883 10929 ft 321 kts 259°
2026-04-25 05:58 53.45668 -2.55700 11312 ft 339 kts 260°
2026-04-25 05:59 53.45224 -2.59617 11999 ft 345 kts 258°
2026-04-25 05:59 53.44328 -2.63353 12801 ft 349 kts 236°
2026-04-25 05:59 53.42630 -2.66257 13628 ft 352 kts 216°
2026-04-25 05:59 53.40427 -2.68105 14371 ft 357 kts 202°
2026-04-25 06:00 53.38085 -2.69580 15073 ft 362 kts 201°
2026-04-25 06:00 53.35702 -2.71015 15740 ft 366 kts 200°
2026-04-25 06:00 53.33292 -2.72464 16408 ft 371 kts 201°
2026-04-25 06:00 53.30853 -2.73947 17098 ft 374 kts 201°
2026-04-25 06:01 53.28410 -2.75449 17751 ft 377 kts 201°
2026-04-25 06:01 53.25932 -2.76985 18382 ft 381 kts 201°
2026-04-25 06:01 53.23445 -2.78531 19008 ft 384 kts 201°
2026-04-25 06:01 53.20932 -2.80094 19641 ft 387 kts 201°
2026-04-25 06:02 53.18402 -2.81668 20247 ft 390 kts 202°
2026-04-25 06:02 53.15854 -2.83252 20834 ft 392 kts 202°
2026-04-25 06:02 53.13297 -2.84837 21396 ft 395 kts 202°
2026-04-25 06:02 53.10692 -2.86425 21954 ft 399 kts 199°
2026-04-25 06:03 53.07976 -2.87431 22476 ft 404 kts 188°
2026-04-25 06:03 53.05152 -2.87617 23006 ft 409 kts 179°
2026-04-25 06:03 53.02351 -2.87042 23505 ft 413 kts 173°
2026-04-25 06:03 52.99469 -2.86222 23983 ft 416 kts 172°
2026-04-25 06:04 52.96641 -2.85396 24445 ft 420 kts 172°
2026-04-25 06:04 52.93758 -2.84571 24903 ft 422 kts 173°
2026-04-25 06:04 52.90870 -2.83770 25347 ft 424 kts 173°
2026-04-25 06:04 52.87934 -2.82974 25783 ft 427 kts 173°
2026-04-25 06:05 52.84989 -2.82185 26211 ft 429 kts 173°
2026-04-25 06:05 52.82024 -2.81394 26620 ft 432 kts 173°
2026-04-25 06:05 52.79072 -2.80606 27018 ft 434 kts 173°
2026-04-25 06:05 52.76068 -2.79784 27411 ft 437 kts 173°
2026-04-25 06:06 52.73062 -2.78954 27787 ft 439 kts 173°
2026-04-25 06:06 52.70047 -2.78125 28152 ft 441 kts 173°
2026-04-25 06:06 52.67002 -2.77314 28506 ft 443 kts 173°
2026-04-25 06:06 52.63959 -2.76519 28838 ft 445 kts 173°
2026-04-25 06:07 52.60874 -2.75848 29208 ft 445 kts 179°
2026-04-25 06:07 52.57816 -2.75933 29690 ft 439 kts 187°
2026-04-25 06:07 52.54765 -2.76307 30179 ft 437 kts 186°
2026-04-25 06:07 52.51745 -2.76629 30533 ft 438 kts 186°
2026-04-25 06:08 52.48686 -2.76911 30860 ft 439 kts 185°
2026-04-25 06:08 52.45636 -2.77175 31217 ft 439 kts 185°
2026-04-25 06:08 52.42588 -2.77432 31643 ft 437 kts 185°
2026-04-25 06:08 52.39566 -2.77686 32071 ft 435 kts 185°
2026-04-25 06:09 52.36549 -2.77941 32434 ft 434 kts 185°
2026-04-25 06:09 52.33536 -2.78198 32717 ft 434 kts 185°
2026-04-25 06:09 52.30519 -2.78457 33060 ft 434 kts 185°
2026-04-25 06:09 52.27509 -2.78716 33470 ft 431 kts 185°
2026-04-25 06:10 52.24524 -2.78972 33825 ft 430 kts 185°
2026-04-25 06:10 52.21540 -2.79230 34128 ft 429 kts 185°
2026-04-25 06:10 52.18561 -2.79487 34430 ft 428 kts 185°
2026-04-25 06:10 52.15581 -2.79741 34712 ft 429 kts 185°
2026-04-25 06:11 52.12603 -2.79995 34953 ft 429 kts 185°
2026-04-25 06:11 52.09619 -2.80249 35186 ft 430 kts 185°
2026-04-25 06:11 52.06632 -2.80503 35482 ft 429 kts 185°
2026-04-25 06:11 52.03656 -2.80756 35757 ft 428 kts 185°
2026-04-25 06:12 52.00675 -2.81011 35970 ft 429 kts 185°
2026-04-25 06:12 51.97683 -2.81267 36178 ft 430 kts 185°
2026-04-25 06:12 51.94692 -2.81521 36474 ft 428 kts 185°
2026-04-25 06:12 51.91728 -2.81772 36768 ft 427 kts 185°
2026-04-25 06:13 51.88762 -2.82023 36973 ft 428 kts 185°
2026-04-25 06:13 51.85796 -2.82277 37179 ft 427 kts 186°
2026-04-25 06:14 51.76951 -2.84031 37197 ft 426 kts 190°
2026-04-25 06:14 51.71162 -2.85332 37199 ft 416 kts 190°
2026-04-25 06:15 51.65425 -2.86566 37210 ft 416 kts 189°
2026-04-25 06:15 51.59682 -2.87777 37203 ft 416 kts 189°
2026-04-25 06:16 51.54898 -2.88958 37197 ft 414 kts 196°
2026-04-25 06:16 51.49530 -2.92040 37203 ft 412 kts 202°
2026-04-25 06:17 51.44169 -2.95339 37206 ft 413 kts 202°
2026-04-25 06:17 51.38798 -2.98594 37203 ft 413 kts 202°
2026-04-25 06:18 51.33403 -3.01828 37205 ft 414 kts 202°
2026-04-25 06:18 51.27999 -3.05048 37204 ft 415 kts 202°
2026-04-25 06:19 51.22588 -3.08263 37205 ft 415 kts 202°
2026-04-25 06:19 51.17169 -3.11477 37204 ft 416 kts 202°
2026-04-25 06:20 51.11739 -3.14690 37202 ft 416 kts 202°
2026-04-25 06:20 51.06313 -3.17891 37206 ft 416 kts 202°
2026-04-25 06:21 51.00891 -3.21082 37198 ft 416 kts 202°
2026-04-25 06:21 50.95462 -3.24270 37205 ft 415 kts 202°
2026-04-25 06:22 50.90054 -3.27437 37202 ft 415 kts 202°
2026-04-25 06:22 50.84649 -3.30594 37210 ft 414 kts 202°
2026-04-25 06:23 50.79242 -3.33744 37212 ft 414 kts 202°
2026-04-25 06:23 50.73846 -3.36881 37211 ft 413 kts 202°
2026-04-25 06:24 50.68447 -3.40014 37213 ft 412 kts 202°
2026-04-25 06:24 50.63069 -3.43127 37212 ft 412 kts 202°
2026-04-25 06:25 50.57673 -3.46140 37206 ft 412 kts 197°
2026-04-25 06:25 50.51986 -3.47429 37215 ft 414 kts 187°
2026-04-25 06:26 50.46255 -3.48314 37215 ft 413 kts 188°
2026-04-25 06:26 50.40586 -3.49276 37205 ft 413 kts 188°
2026-04-25 06:27 50.34836 -3.49799 37201 ft 414 kts 184°
2026-04-25 06:27 50.29073 -3.50055 37193 ft 414 kts 184°
2026-04-25 06:28 50.23300 -3.50323 37187 ft 414 kts 184°
2026-04-25 06:28 50.17552 -3.50625 37195 ft 414 kts 184°
2026-04-25 06:29 50.11802 -3.50937 37183 ft 414 kts 184°
2026-04-25 06:29 50.06046 -3.51252 37185 ft 414 kts 184°
2026-04-25 06:30 50.00278 -3.51566 37183 ft 414 kts 184°
2026-04-25 06:30 49.94512 -3.51876 37178 ft 415 kts 184°
2026-04-25 06:31 49.88739 -3.52190 37169 ft 415 kts 184°
2026-04-25 06:31 49.82969 -3.52502 37178 ft 415 kts 184°
2026-04-25 06:32 49.77202 -3.52812 37169 ft 415 kts 184°
2026-04-25 06:32 49.71424 -3.53127 37165 ft 415 kts 184°
2026-04-25 06:33 49.65648 -3.53466 37170 ft 415 kts 185°
2026-04-25 06:33 49.59893 -3.53810 37165 ft 414 kts 185°
2026-04-25 06:34 49.54136 -3.54150 37164 ft 414 kts 184°
2026-04-25 06:34 49.48372 -3.54487 37158 ft 414 kts 184°
2026-04-25 06:35 49.42611 -3.54822 37155 ft 414 kts 184°
2026-04-25 06:35 49.36862 -3.55158 37155 ft 413 kts 184°
2026-04-25 06:36 49.31127 -3.55493 37147 ft 413 kts 184°
2026-04-25 06:36 49.25380 -3.55826 37146 ft 413 kts 184°
2026-04-25 06:37 49.19636 -3.56159 37147 ft 413 kts 184°
2026-04-25 06:37 49.13896 -3.56490 37146 ft 413 kts 184°
2026-04-25 06:38 49.08153 -3.56820 37149 ft 412 kts 184°
2026-04-25 06:38 49.02415 -3.57151 37147 ft 412 kts 184°
2026-04-25 06:39 48.96722 -3.57476 37149 ft 412 kts 184°
2026-04-25 06:39 48.91001 -3.57804 37146 ft 412 kts 184°
2026-04-25 06:40 48.85272 -3.58131 37157 ft 411 kts 184°
2026-04-25 06:40 48.79553 -3.58456 37155 ft 411 kts 184°
2026-04-25 06:41 48.73832 -3.58784 37158 ft 411 kts 184°
2026-04-25 06:41 48.68106 -3.59108 37158 ft 411 kts 184°
2026-04-25 06:42 48.62394 -3.59431 37153 ft 412 kts 184°
2026-04-25 06:42 48.56660 -3.59754 37149 ft 412 kts 184°
2026-04-25 06:43 48.50937 -3.60076 37138 ft 412 kts 184°
2026-04-25 06:43 48.45201 -3.60398 37140 ft 411 kts 184°
2026-04-25 06:44 48.39494 -3.60719 37139 ft 411 kts 184°
2026-04-25 06:44 48.33770 -3.61038 37137 ft 410 kts 184°
2026-04-25 06:45 48.28074 -3.61356 37141 ft 410 kts 184°
2026-04-25 06:45 48.22390 -3.61673 37139 ft 410 kts 184°
2026-04-25 06:46 48.16671 -3.61991 37137 ft 409 kts 184°
2026-04-25 06:46 48.10981 -3.62306 37137 ft 409 kts 184°
2026-04-25 06:47 48.05300 -3.62621 37138 ft 409 kts 184°
2026-04-25 06:47 47.99624 -3.62933 37138 ft 408 kts 184°
2026-04-25 06:48 47.93949 -3.63246 37137 ft 408 kts 184°
2026-04-25 06:48 47.88270 -3.63558 37137 ft 408 kts 184°
2026-04-25 06:49 47.82589 -3.63870 37138 ft 408 kts 184°
2026-04-25 06:49 47.76907 -3.64180 37139 ft 408 kts 184°
2026-04-25 06:50 47.71244 -3.64490 37129 ft 408 kts 184°
2026-04-25 06:50 47.65558 -3.64799 37130 ft 408 kts 184°
2026-04-25 06:51 47.59921 -3.65106 37138 ft 408 kts 184°
2026-04-25 06:51 47.54210 -3.65416 37138 ft 408 kts 184°
2026-04-25 06:52 47.48572 -3.65720 37137 ft 408 kts 184°
2026-04-25 06:52 47.42884 -3.66028 37139 ft 409 kts 184°
2026-04-25 06:53 47.37197 -3.66334 37139 ft 409 kts 184°
2026-04-25 06:53 47.31509 -3.66640 37140 ft 410 kts 184°
2026-04-25 06:54 47.25799 -3.66946 37139 ft 410 kts 184°
2026-04-25 06:54 47.20092 -3.67251 37139 ft 411 kts 184°
2026-04-25 06:55 47.14370 -3.67558 37140 ft 411 kts 184°
2026-04-25 06:55 47.08655 -3.67862 37139 ft 411 kts 184°
2026-04-25 06:56 47.02933 -3.68181 37133 ft 411 kts 185°
2026-04-25 06:56 46.97242 -3.68808 37139 ft 410 kts 187°
2026-04-25 06:57 46.91550 -3.69545 37140 ft 410 kts 187°
2026-04-25 06:57 46.85876 -3.70256 37142 ft 409 kts 186°
2026-04-25 06:58 46.80184 -3.70924 37151 ft 409 kts 186°
2026-04-25 06:58 46.74501 -3.71604 37139 ft 411 kts 186°
2026-04-25 06:59 46.68788 -3.72279 37138 ft 411 kts 186°
2026-04-25 06:59 46.63096 -3.72947 37148 ft 411 kts 186°
2026-04-25 07:00 46.57398 -3.73612 37144 ft 411 kts 186°
2026-04-25 07:00 46.51690 -3.74278 37149 ft 411 kts 186°
2026-04-25 07:01 46.46918 -3.74834 37146 ft 411 kts 186°
2026-04-25 07:01 46.41220 -3.75495 37148 ft 411 kts 186°
2026-04-25 07:02 46.35560 -3.76157 37148 ft 411 kts 186°
2026-04-25 07:02 46.29839 -3.76817 37146 ft 410 kts 186°
2026-04-25 07:03 46.24173 -3.77469 37145 ft 410 kts 186°
2026-04-25 07:03 46.18486 -3.78124 37145 ft 410 kts 186°
2026-04-25 07:04 46.12812 -3.78777 37150 ft 409 kts 186°
2026-04-25 07:04 46.07109 -3.79433 37159 ft 409 kts 186°
2026-04-25 07:05 46.01473 -3.80078 37164 ft 408 kts 186°
2026-04-25 07:05 45.95808 -3.80723 37166 ft 409 kts 186°
2026-04-25 07:06 45.90145 -3.81369 37163 ft 409 kts 186°
2026-04-25 07:06 45.84475 -3.82015 37163 ft 409 kts 186°
2026-04-25 07:07 45.78793 -3.82662 37163 ft 409 kts 186°
2026-04-25 07:07 45.73128 -3.83305 37172 ft 409 kts 186°
2026-04-25 07:08 45.67451 -3.83947 37178 ft 409 kts 186°
2026-04-25 07:08 45.61765 -3.84589 37178 ft 409 kts 186°
2026-04-25 07:09 45.56085 -3.85228 37172 ft 410 kts 186°
2026-04-25 07:09 45.50395 -3.85868 37177 ft 410 kts 186°
2026-04-25 07:10 45.44715 -3.86505 37175 ft 411 kts 186°
2026-04-25 07:10 45.39008 -3.87142 37190 ft 411 kts 186°
2026-04-25 07:11 45.33306 -3.87781 37190 ft 411 kts 186°
2026-04-25 07:11 45.27599 -3.88419 37179 ft 411 kts 186°
2026-04-25 07:12 45.21893 -3.89055 37186 ft 412 kts 186°
2026-04-25 07:12 45.13314 -3.90007 37184 ft 412 kts 186°
2026-04-25 07:13 45.07589 -3.90641 37197 ft 412 kts 186°
2026-04-25 07:13 45.01860 -3.91273 37192 ft 414 kts 185°
2026-04-25 07:14 44.96128 -3.91865 37193 ft 413 kts 186°
2026-04-25 07:14 44.90389 -3.92524 37197 ft 413 kts 186°
2026-04-25 07:15 44.84667 -3.93165 37194 ft 412 kts 186°
2026-04-25 07:15 44.78951 -3.93794 37184 ft 412 kts 186°
2026-04-25 07:16 44.73233 -3.94420 37197 ft 412 kts 186°
2026-04-25 07:16 44.67527 -3.95043 37202 ft 411 kts 186°
2026-04-25 07:17 44.61827 -3.95664 37204 ft 411 kts 186°
2026-04-25 07:17 44.56155 -3.96281 37203 ft 411 kts 186°
2026-04-25 07:18 44.50422 -3.96904 37204 ft 411 kts 186°
2026-04-25 07:18 44.44752 -3.97517 37201 ft 411 kts 186°
2026-04-25 07:19 44.39058 -3.98134 37204 ft 411 kts 186°
2026-04-25 07:19 44.33357 -3.98741 37204 ft 412 kts 185°
2026-04-25 07:20 44.27613 -3.98437 37205 ft 414 kts 178°
2026-04-25 07:20 44.21870 -3.97779 37207 ft 414 kts 177°
2026-04-25 07:21 44.16111 -3.97158 37203 ft 415 kts 178°
2026-04-25 07:21 44.10353 -3.96578 37204 ft 415 kts 178°
2026-04-25 07:22 44.04577 -3.96014 37204 ft 416 kts 178°
2026-04-25 07:22 43.98803 -3.95451 37204 ft 416 kts 178°
2026-04-25 07:23 43.93019 -3.94886 37207 ft 417 kts 178°
2026-04-25 07:23 43.87240 -3.94323 37212 ft 416 kts 178°
2026-04-25 07:24 43.81460 -3.93762 37211 ft 416 kts 178°
2026-04-25 07:24 43.75682 -3.93201 37212 ft 416 kts 178°
2026-04-25 07:25 43.69911 -3.92635 37213 ft 415 kts 178°
2026-04-25 07:25 43.64157 -3.92071 37209 ft 415 kts 178°
2026-04-25 07:26 43.58432 -3.91509 37212 ft 414 kts 178°
2026-04-25 07:26 43.52648 -3.90945 37213 ft 414 kts 178°
2026-04-25 07:27 43.46907 -3.90386 37213 ft 414 kts 178°
2026-04-25 07:27 43.41219 -3.90611 37220 ft 410 kts 188°
2026-04-25 07:28 43.35551 -3.91538 37218 ft 411 kts 188°
2026-04-25 07:28 43.29865 -3.92441 37213 ft 412 kts 188°
2026-04-25 07:29 43.24166 -3.93305 37214 ft 412 kts 187°
2026-04-25 07:29 43.18461 -3.94152 37210 ft 413 kts 187°
2026-04-25 07:30 43.12751 -3.94998 37214 ft 413 kts 187°
2026-04-25 07:30 43.07031 -3.95843 37204 ft 414 kts 187°
2026-04-25 07:31 43.01305 -3.96689 37204 ft 414 kts 187°
2026-04-25 07:31 42.95559 -3.97539 37201 ft 415 kts 187°
2026-04-25 07:32 42.89814 -3.98378 37205 ft 415 kts 187°
2026-04-25 07:32 42.84073 -3.99216 37198 ft 416 kts 187°
2026-04-25 07:33 42.78323 -4.00055 37196 ft 416 kts 187°
2026-04-25 07:33 42.72558 -4.00896 37198 ft 416 kts 187°
2026-04-25 07:34 42.66811 -4.01733 37195 ft 416 kts 187°
2026-04-25 07:34 42.61062 -4.02568 37178 ft 416 kts 187°
2026-04-25 07:35 42.55308 -4.03401 37180 ft 415 kts 187°
2026-04-25 07:35 42.49558 -4.04228 37180 ft 415 kts 187°
2026-04-25 07:36 42.43821 -4.05050 37182 ft 415 kts 187°
2026-04-25 07:36 42.38090 -4.05873 37188 ft 414 kts 187°
2026-04-25 07:37 42.32353 -4.06695 37179 ft 414 kts 187°
2026-04-25 07:37 42.26654 -4.07508 37185 ft 414 kts 187°
2026-04-25 07:38 42.20924 -4.08324 37173 ft 414 kts 186°
2026-04-25 07:38 42.15198 -4.09139 37170 ft 414 kts 186°
2026-04-25 07:39 42.09470 -4.09954 37178 ft 414 kts 186°
2026-04-25 07:39 42.03745 -4.10765 37171 ft 414 kts 186°
2026-04-25 07:40 41.98007 -4.11492 37173 ft 414 kts 185°
2026-04-25 07:40 41.92274 -4.12125 37178 ft 414 kts 185°
2026-04-25 07:41 41.86539 -4.12762 37173 ft 414 kts 185°
2026-04-25 07:41 41.80796 -4.13411 37169 ft 414 kts 185°
2026-04-25 07:42 41.75054 -4.14063 37166 ft 414 kts 185°
2026-04-25 07:42 41.69304 -4.14717 37169 ft 414 kts 185°
2026-04-25 07:43 41.63568 -4.15366 37170 ft 414 kts 185°
2026-04-25 07:43 41.57817 -4.16017 37165 ft 414 kts 185°
2026-04-25 07:44 41.52072 -4.16666 37171 ft 415 kts 185°
2026-04-25 07:44 41.46321 -4.17311 37161 ft 415 kts 185°
2026-04-25 07:45 41.40568 -4.17950 37168 ft 415 kts 185°
2026-04-25 07:45 41.34813 -4.18588 37166 ft 415 kts 185°
2026-04-25 07:46 41.29045 -4.19229 37172 ft 416 kts 185°
2026-04-25 07:46 41.24242 -4.19761 37164 ft 417 kts 185°
2026-04-25 07:47 41.17527 -4.20513 37165 ft 417 kts 185°
2026-04-25 07:47 41.12685 -4.21054 37164 ft 418 kts 185°
2026-04-25 07:48 41.06880 -4.21702 37166 ft 418 kts 185°
2026-04-25 07:48 41.01088 -4.22345 37172 ft 419 kts 185°
2026-04-25 07:49 40.95279 -4.22987 37162 ft 419 kts 185°
2026-04-25 07:49 40.89466 -4.23628 37161 ft 419 kts 185°
2026-04-25 07:50 40.83683 -4.24266 37157 ft 419 kts 185°
2026-04-25 07:50 40.77866 -4.24907 37159 ft 420 kts 185°
2026-04-25 07:51 40.71999 -4.25551 37158 ft 420 kts 185°
2026-04-25 07:51 40.66216 -4.26184 37159 ft 420 kts 185°
2026-04-25 07:52 40.60379 -4.26823 37155 ft 421 kts 185°
2026-04-25 07:52 40.54545 -4.27461 37159 ft 421 kts 184°
2026-04-25 07:53 40.48704 -4.28098 37159 ft 421 kts 184°
2026-04-25 07:53 40.42824 -4.28737 37153 ft 422 kts 184°
2026-04-25 07:54 40.36973 -4.29373 37161 ft 422 kts 184°
2026-04-25 07:54 40.31117 -4.30009 37156 ft 422 kts 184°
2026-04-25 07:55 40.25275 -4.30641 37154 ft 422 kts 184°
2026-04-25 07:55 40.19466 -4.31269 37156 ft 421 kts 184°
2026-04-25 07:56 40.13596 -4.31903 37157 ft 420 kts 184°
2026-04-25 07:56 40.07767 -4.32531 37157 ft 420 kts 184°
2026-04-25 07:57 40.01954 -4.33157 37156 ft 419 kts 184°
2026-04-25 07:57 39.96129 -4.33824 37154 ft 420 kts 187°
2026-04-25 07:58 39.90410 -4.35043 37161 ft 419 kts 189°
2026-04-25 07:58 39.84668 -4.36377 37154 ft 419 kts 189°
2026-04-25 07:59 39.78910 -4.37655 37150 ft 420 kts 189°
2026-04-25 07:59 39.73150 -4.38908 37144 ft 420 kts 189°
2026-04-25 08:00 39.67381 -4.40136 37151 ft 420 kts 188°
2026-04-25 08:00 39.61605 -4.41362 37146 ft 421 kts 188°
2026-04-25 08:01 39.55819 -4.42590 37141 ft 422 kts 188°
2026-04-25 08:01 39.50027 -4.43820 37138 ft 422 kts 188°
2026-04-25 08:02 39.44209 -4.45053 37139 ft 423 kts 188°
2026-04-25 08:02 39.38394 -4.46284 37138 ft 424 kts 188°
2026-04-25 08:03 39.32567 -4.47515 37132 ft 425 kts 188°
2026-04-25 08:03 39.26734 -4.48744 37128 ft 425 kts 188°
2026-04-25 08:04 39.21088 -4.50798 37134 ft 427 kts 204°
2026-04-25 08:04 39.15992 -4.54850 37129 ft 428 kts 213°
2026-04-25 08:05 39.11057 -4.59173 37123 ft 429 kts 213°
2026-04-25 08:05 39.06081 -4.63439 37119 ft 430 kts 213°
2026-04-25 08:06 39.01089 -4.67667 37123 ft 430 kts 211°
2026-04-25 08:06 38.95667 -4.70868 37118 ft 430 kts 199°
2026-04-25 08:07 38.90088 -4.73498 37113 ft 430 kts 199°
2026-04-25 08:07 38.84425 -4.76176 37110 ft 431 kts 199°
2026-04-25 08:08 38.78833 -4.78856 37089 ft 432 kts 200°
2026-04-25 08:08 38.73203 -4.81570 37094 ft 433 kts 200°
2026-04-25 08:09 38.67574 -4.84285 37081 ft 432 kts 200°
2026-04-25 08:09 38.61933 -4.87003 37084 ft 433 kts 200°
2026-04-25 08:10 38.56288 -4.89714 37083 ft 433 kts 200°
2026-04-25 08:10 38.50646 -4.92420 37081 ft 433 kts 200°
2026-04-25 08:11 38.44999 -4.95124 37083 ft 433 kts 200°
2026-04-25 08:11 38.39361 -4.97819 37081 ft 433 kts 200°
2026-04-25 08:12 38.33716 -5.00511 37084 ft 433 kts 200°
2026-04-25 08:12 38.28065 -5.03204 37083 ft 434 kts 200°
2026-04-25 08:13 38.22411 -5.05893 37081 ft 434 kts 200°
2026-04-25 08:14 38.13924 -5.09921 37075 ft 434 kts 200°
2026-04-25 08:14 38.08255 -5.12606 37072 ft 435 kts 200°
2026-04-25 08:15 38.02577 -5.15291 37080 ft 435 kts 200°
2026-04-25 08:15 37.96894 -5.17973 37068 ft 436 kts 200°
2026-04-25 08:16 37.91205 -5.20655 37071 ft 437 kts 200°
2026-04-25 08:16 37.85511 -5.23334 37080 ft 437 kts 200°
2026-04-25 08:17 37.79795 -5.26019 37073 ft 439 kts 200°
2026-04-25 08:17 37.74071 -5.28703 37075 ft 439 kts 200°
2026-04-25 08:18 37.68367 -5.31374 37077 ft 440 kts 200°
2026-04-25 08:18 37.62631 -5.34056 37082 ft 441 kts 200°
2026-04-25 08:19 37.56873 -5.36743 37094 ft 441 kts 200°
2026-04-25 08:19 37.51113 -5.39427 37084 ft 442 kts 200°
2026-04-25 08:19 37.48220 -5.40773 36817 ft 446 kts 200°
2026-04-25 08:20 37.45311 -5.42125 36396 ft 444 kts 200°
2026-04-25 08:20 37.42421 -5.43468 35845 ft 444 kts 200°
2026-04-25 08:20 37.39521 -5.44814 35288 ft 444 kts 200°
2026-04-25 08:20 37.36616 -5.46161 34700 ft 445 kts 199°
2026-04-25 08:21 37.33706 -5.47509 34098 ft 446 kts 199°
2026-04-25 08:21 37.30798 -5.48855 33485 ft 447 kts 199°
2026-04-25 08:21 37.27875 -5.50208 32864 ft 448 kts 199°
2026-04-25 08:21 37.24952 -5.51558 32227 ft 449 kts 199°
2026-04-25 08:22 37.22022 -5.52912 31706 ft 447 kts 199°
2026-04-25 08:22 37.19113 -5.54254 31256 ft 444 kts 199°
2026-04-25 08:22 37.16228 -5.55585 30801 ft 440 kts 199°
2026-04-25 08:22 37.13388 -5.56894 30350 ft 437 kts 199°
2026-04-25 08:23 37.10518 -5.58214 29896 ft 434 kts 199°
2026-04-25 08:23 37.07700 -5.59513 29442 ft 431 kts 199°
2026-04-25 08:23 37.04903 -5.60798 28983 ft 427 kts 199°
2026-04-25 08:23 37.02119 -5.62075 28518 ft 424 kts 199°
2026-04-25 08:24 36.99355 -5.63342 28073 ft 421 kts 199°
2026-04-25 08:24 36.96625 -5.64594 27622 ft 418 kts 199°
2026-04-25 08:24 36.93906 -5.65840 27172 ft 415 kts 199°
2026-04-25 08:24 36.91202 -5.67079 26721 ft 412 kts 199°
2026-04-25 08:25 36.88524 -5.68304 26281 ft 409 kts 199°
2026-04-25 08:25 36.85858 -5.69522 25841 ft 406 kts 199°
2026-04-25 08:25 36.83213 -5.70731 25403 ft 404 kts 199°
2026-04-25 08:25 36.80588 -5.71929 24967 ft 401 kts 199°
2026-04-25 08:26 36.77972 -5.73122 24536 ft 398 kts 199°
2026-04-25 08:26 36.75380 -5.74304 24102 ft 395 kts 200°
2026-04-25 08:26 36.72812 -5.75474 23675 ft 393 kts 200°
2026-04-25 08:26 36.70253 -5.76638 23241 ft 390 kts 200°
2026-04-25 08:27 36.67712 -5.77794 22822 ft 387 kts 200°
2026-04-25 08:27 36.65186 -5.78942 22401 ft 385 kts 200°
2026-04-25 08:27 36.62672 -5.80084 21986 ft 383 kts 200°
2026-04-25 08:27 36.60181 -5.81215 21565 ft 380 kts 200°
2026-04-25 08:28 36.57705 -5.82338 21149 ft 378 kts 200°
2026-04-25 08:28 36.55241 -5.83455 20737 ft 376 kts 200°
2026-04-25 08:28 36.52825 -5.84550 20327 ft 373 kts 200°
2026-04-25 08:28 36.50393 -5.85651 19921 ft 371 kts 200°
2026-04-25 08:29 36.47978 -5.86743 19521 ft 369 kts 200°
2026-04-25 08:29 36.45534 -5.87848 19098 ft 367 kts 200°
2026-04-25 08:29 36.43174 -5.88914 18698 ft 365 kts 200°
2026-04-25 08:29 36.40790 -5.89990 18282 ft 363 kts 200°
2026-04-25 08:30 36.38426 -5.91057 17888 ft 361 kts 200°
2026-04-25 08:30 36.36073 -5.92119 17484 ft 359 kts 200°
2026-04-25 08:30 36.33731 -5.93175 17089 ft 357 kts 201°
2026-04-25 08:30 36.31402 -5.94224 16689 ft 355 kts 201°
2026-04-25 08:31 36.29080 -5.95270 16288 ft 353 kts 201°
2026-04-25 08:31 36.26785 -5.96302 15891 ft 351 kts 201°
2026-04-25 08:31 36.24462 -5.97204 15487 ft 350 kts 193°
2026-04-25 08:31 36.22059 -5.97556 15164 ft 347 kts 181°
2026-04-25 08:32 36.19649 -5.97473 14795 ft 344 kts 178°
2026-04-25 08:32 36.17267 -5.97323 14394 ft 343 kts 178°
2026-04-25 08:32 36.14896 -5.97165 13999 ft 341 kts 178°
2026-04-25 08:32 36.13327 -5.97063 13733 ft 340 kts 178°
2026-04-25 08:33 36.10963 -5.96916 13328 ft 338 kts 179°
2026-04-25 08:33 36.08626 -5.96778 12928 ft 337 kts 179°
2026-04-25 08:33 36.06287 -5.96646 12527 ft 335 kts 179°
2026-04-25 08:33 36.03971 -5.96518 12127 ft 333 kts 179°
2026-04-25 08:34 36.01656 -5.96391 11709 ft 331 kts 180°
2026-04-25 08:34 35.99367 -5.96267 11322 ft 330 kts 179°
2026-04-25 08:34 35.97073 -5.96143 10928 ft 328 kts 179°
2026-04-25 08:34 35.94804 -5.96021 10584 ft 325 kts 179°
2026-04-25 08:35 35.92587 -5.95901 10463 ft 314 kts 178°
2026-04-25 08:35 35.90435 -5.95785 10320 ft 305 kts 178°
2026-04-25 08:35 35.88347 -5.95673 10189 ft 296 kts 178°
2026-04-25 08:35 35.86310 -5.95563 10075 ft 288 kts 178°
2026-04-25 08:36 35.84330 -5.95631 9784 ft 285 kts 194°
2026-04-25 08:36 35.82593 -5.96696 9550 ft 279 kts 220°
2026-04-25 08:36 35.81286 -5.98447 9275 ft 276 kts 233°
2026-04-25 08:36 35.80125 -6.00319 8986 ft 276 kts 233°
2026-04-25 08:37 35.78957 -6.02197 8703 ft 275 kts 232°
2026-04-25 08:37 35.77794 -6.04058 8412 ft 274 kts 232°
2026-04-25 08:37 35.76644 -6.05904 8260 ft 270 kts 232°
2026-04-25 08:37 35.75490 -6.07759 8001 ft 275 kts 232°
2026-04-25 08:38 35.74320 -6.09640 7754 ft 277 kts 232°
2026-04-25 08:38 35.73155 -6.11514 7505 ft 276 kts 232°
2026-04-25 08:38 35.71994 -6.13381 7251 ft 273 kts 232°
2026-04-25 08:38 35.70844 -6.15234 6998 ft 272 kts 232°
2026-04-25 08:39 35.69699 -6.17077 6748 ft 270 kts 232°
2026-04-25 08:39 35.68553 -6.18923 6509 ft 275 kts 232°
2026-04-25 08:39 35.67374 -6.20825 6274 ft 285 kts 232°
2026-04-25 08:39 35.66143 -6.22810 6042 ft 297 kts 232°
2026-04-25 08:40 35.64873 -6.24862 5813 ft 305 kts 232°
2026-04-25 08:40 35.63643 -6.26972 5546 ft 302 kts 238°
2026-04-25 08:40 35.62701 -6.29255 5284 ft 297 kts 248°
2026-04-25 08:40 35.62093 -6.31650 5023 ft 293 kts 258°
2026-04-25 08:41 35.61828 -6.34107 4770 ft 288 kts 268°
2026-04-25 08:41 35.61912 -6.36546 4512 ft 284 kts 277°
2026-04-25 08:41 35.62336 -6.38900 4260 ft 280 kts 288°
2026-04-25 08:41 35.63080 -6.41071 4136 ft 271 kts 298°
2026-04-25 08:42 35.64099 -6.42968 4086 ft 260 kts 310°
2026-04-25 08:42 35.65335 -6.44518 4030 ft 249 kts 321°
2026-04-25 08:42 35.66742 -6.45675 3966 ft 239 kts 337°
2026-04-25 08:42 35.68330 -6.46017 3914 ft 236 kts
2026-04-25 08:43 35.69832 -6.45295 3894 ft 233 kts 36°
2026-04-25 08:43 35.71059 -6.43982 3851 ft 231 kts 56°
2026-04-25 08:43 35.71670 -6.42215 3837 ft 228 kts 77°
2026-04-25 08:43 35.71999 -6.40305 3801 ft 229 kts 82°
2026-04-25 08:44 35.72204 -6.38366 3768 ft 229 kts 84°
2026-04-25 08:44 35.72387 -6.36418 3740 ft 229 kts 84°
2026-04-25 08:44 35.72564 -6.34466 3708 ft 230 kts 84°
2026-04-25 08:44 35.72741 -6.32504 3657 ft 231 kts 85°
2026-04-25 08:45 35.72918 -6.30543 3619 ft 231 kts 84°
2026-04-25 08:45 35.73097 -6.28577 3586 ft 231 kts 84°
2026-04-25 08:45 35.73275 -6.26609 3543 ft 231 kts 85°
2026-04-25 08:45 35.73454 -6.24654 3506 ft 230 kts 84°
2026-04-25 08:46 35.73631 -6.22699 3463 ft 229 kts 85°
2026-04-25 08:46 35.73752 -6.20749 3432 ft 227 kts 87°
2026-04-25 08:46 35.73853 -6.18814 3395 ft 226 kts 88°
2026-04-25 08:46 35.73950 -6.16862 3176 ft 231 kts 88°
2026-04-25 08:47 35.74048 -6.14911 2954 ft 225 kts 88°
2026-04-25 08:47 35.74261 -6.13032 2722 ft 218 kts 81°
2026-04-25 08:47 35.74559 -6.11241 2477 ft 209 kts 79°
2026-04-25 08:47 35.74842 -6.09539 2319 ft 196 kts 79°
2026-04-25 08:48 35.75029 -6.07916 2096 ft 187 kts 95°
2026-04-25 08:48 35.74827 -6.06399 1898 ft 173 kts 99°
2026-04-25 08:48 35.74618 -6.04995 1679 ft 161 kts 100°
2026-04-25 08:48 35.74405 -6.03683 1443 ft 151 kts 101°
2026-04-25 08:49 35.74196 -6.02456 1247 ft 145 kts 100°
2026-04-25 08:49 35.74009 -6.01245 1008 ft 143 kts 97°
2026-04-25 08:49 35.73859 -6.00049 821 ft 140 kts 97°
2026-04-25 08:49 35.73723 -5.98855 705 ft 142 kts 95°
2026-04-25 08:50 35.73657 -5.97657 556 ft 140 kts 92°
2026-04-25 08:50 35.73570 -5.96466 402 ft 141 kts 95°
2026-04-25 08:50 35.73459 -5.95260 254 ft 145 kts 95°
2026-04-25 08:50 35.73341 -5.94014 109 ft 147 kts 95°
2026-04-25 08:51 35.73239 -5.92822 59 ft 124 kts 98°
2026-04-25 08:51 35.73162 -5.92045 57 ft 59 kts 96°
2026-04-25 08:51 35.73111 -5.91790 56 ft 21 kts 135°
2026-04-25 08:51 35.72994 -5.91732 56 ft 17 kts 175°
2026-04-25 08:52 35.72881 -5.91721 54 ft 16 kts 175°
2026-04-25 08:52 35.72770 -5.91710 55 ft 16 kts 175°
2026-04-25 08:52 35.72666 -5.91700 56 ft 15 kts 175°
2026-04-25 08:52 35.72564 -5.91690 54 ft 14 kts 176°
2026-04-25 08:53 35.72472 -5.91662 59 ft 14 kts 147°
2026-04-25 08:53 35.72427 -5.91567 54 ft 13 kts 99°
2026-04-25 08:53 35.72431 -5.91457 53 ft 13 kts 85°
2026-04-25 08:53 35.72438 -5.91350 59 ft 12 kts 85°
2026-04-25 08:54 35.72447 -5.91246 53 ft 9 kts 66°
2026-04-25 08:54 35.72470 -5.91244 53 ft 3 kts 357°
2026-04-25 08:54 35.72492 -5.91246 56 ft 3 kts 356°
2026-04-25 08:54 35.72514 -5.91248 53 ft 3 kts 355°
2026-04-25 08:55 35.72521 -5.91249 59 ft 0 kts 355°